{"data":{"norad_id":68669,"epoch":"2026-09-19T01:55:13.927584Z","epoch_age_seconds":166817,"freshness":"FRESH","line1":"1 68669U 26077H   26262.08002231  .00015794  00000+0  49029-3 0  9993","line2":"2 68669  97.2888 131.9678 0000975 111.7166 248.4181 15.33459877 24790","mean_motion":15.33459877,"eccentricity":9.75e-5,"inclination_deg":97.2888,"raan_deg":131.9678,"arg_perigee_deg":111.7166,"mean_anomaly_deg":248.4181,"bstar":0.00049029,"rev_number":2479,"period_min":93.905293617278,"perigee_km":464.83165684949,"apogee_km":466.1661658522,"semimajor_km":6843.6359113508,"source":"CELESTRAK","updated_at":"2026-09-20T09:00:43.951002Z"}}